{"data":{"norad_id":65660,"intl_designator":"2025-211J","name":"STARLINK-35246","alt_names":[],"object_type":"PAYLOAD","status":"ACTIVE","operator":null,"country":"US","launch_date":"2025-09-19","launch_site_code":"AFWTR","launch_vehicle":null,"mission":null,"orbit_class":"UNKNOWN","rcs_meters":null,"size_class":null,"mass_kg":null,"dimensions":null,"purposes":["comms"],"wikipedia_slug":null,"has_3d_model":false,"image_url":null,"decayed_at":null,"tle_current":{"epoch":"2026-05-25T03:07:09.597216Z","epoch_age_seconds":77965,"freshness":"FRESH","line1":"1 65660U 25211J   26145.12997219 -.00001218  00000+0 -80354-4 0  9999","line2":"2 65660  97.4441 189.0394 0002097 121.7294 238.4137 15.05659594 38549","mean_motion":15.05659594,"eccentricity":0.0002097,"inclination_deg":97.4441,"raan_deg":189.0394,"arg_perigee_deg":121.7294,"mean_anomaly_deg":238.4137,"bstar":-8.0354e-5,"rev_number":3854,"period_min":95.639147503084,"perigee_km":548.02900390479,"apogee_km":550.93444719829,"semimajor_km":6927.6187255515,"source":"CELESTRAK","updated_at":"2026-05-25T13:38:20.889500Z"}}}